Flag for Austria Weather past 2 weeks in Spittal an der Drau, Carinthia, Austria

Now
55 °F

Partly sunny.


Feels Like: 55 °F
Forecast: 49 / 80 °F
Wind: 2 mph from North

Location: Klagenfurt-Flughafen

Current Time: Jul 31, 2015 at 7:20:22 AM

Latest Report: Jul 31, 2015 at 6:50 AM


Visibility: N/A

Pressure: 30.09 "Hg (28.14 "Hg at 560m altitude)

Humidity: 94%

Dew point: 54 °F

Location of Spittal an der DrauLocation

Historic Weather in Spittal an der Drau — Graph

°F

Spittal an der Drau temperature yesterday

Maximum temperature yesterday: 63 °F (at 12:20 PM)
Minimum temperature yesterday: 59 °F (at 12:50 AM)
Average temperature yesterday: 60 °F

Past Weeks' High & Low Weather Summary

 TemperatureHumidityPressure
High93 °F (Jul 19, 3:50 PM)100% (Jul 16, 5:50 AM)30.18 "Hg (Jul 16, 5:50 AM)
Low55 °F (Jul 31, 5:20 AM)31% (Jul 18, 4:20 PM)29.77 "Hg (Jul 25, 5:20 PM)
Average71 °F74%29.97 "Hg
* Reported Jul 16 5:50 AM — Jul 31 5:50 AM, Spittal an der Drau, Weather by CustomWeather, © 2015

Note: Actual official high and low records may vary slightly from our data, if they occured in-between our weather recording intervals... More about our weather records

Advertising

Spittal an der Drau weather history for previous 24 hours

 ConditionsComfort  
Time TempWeatherWind HumidityBarometerVisibility
5:50 AM
Fri, Jul 31
55 °FOvercast.1 mph94%30.09 "HgN/A
5:20 AM55 °FSprinkles. Passing clouds.3 mph94%30.09 "HgN/A
4:50 AM57 °FLight rain. Passing clouds.2 mph88%30.07 "HgN/A
4:20 AM57 °FLight rain. Passing clouds.2 mph88%30.07 "HgN/A
3:50 AM57 °FLight rain. Overcast.2 mph88%30.07 "HgN/A
3:20 AM57 °FPassing clouds.3 mph94%30.07 "HgN/A
2:50 AM57 °FPassing clouds.2 mph94%30.07 "HgN/A
2:20 AM57 °FSprinkles. Partly cloudy.2 mph94%30.07 "HgN/A
1:50 AM59 °FSprinkles. Passing clouds.3 mph88%30.07 "HgN/A
1:20 AM59 °FPassing clouds.5 mph88%30.07 "HgN/A
12:50 AM59 °FPartly cloudy.3 mph88%30.07 "HgN/A
12:20 AM59 °FPartly cloudy.1 mph88%30.04 "HgN/A
11:50 PM
Thu, Jul 30
59 °FPassing clouds.5 mph88%30.04 "HgN/A
11:20 PM59 °FPassing clouds.2 mph88%30.04 "HgN/A
10:50 PM59 °FPassing clouds.2 mph88%30.04 "HgN/A
10:20 PM59 °FPassing clouds.2 mph88%30.04 "HgN/A
9:50 PM59 °FPassing clouds.1 mph82%30.01 "HgN/A
9:20 PM61 °FPartly sunny.1 mph77%30.01 "HgN/A
8:50 PM61 °FPartly sunny.1 mph77%30.01 "HgN/A
8:20 PM61 °FPartly sunny.2 mph72%30.01 "HgN/A
7:50 PM61 °FPartly sunny.3 mph72%30.01 "HgN/A
7:20 PM61 °FPartly sunny.1 mph77%29.98 "HgN/A
6:50 PM61 °FPartly sunny.2 mph72%29.98 "HgN/A
6:20 PM63 °FPartly sunny.3 mph73%29.98 "HgN/A
5:50 PM63 °FBroken clouds.7 mph68%29.98 "HgN/A
5:20 PM63 °FBroken clouds.6 mph73%29.98 "HgN/A
4:50 PM61 °FBroken clouds.5 mph77%29.98 "HgN/A
4:20 PM63 °FBroken clouds.5 mph73%29.98 "HgN/A
3:50 PM63 °FBroken clouds.6 mph77%29.98 "HgN/A
3:20 PM63 °FBroken clouds.5 mph77%29.98 "HgN/A
2:50 PM63 °FBroken clouds.6 mph77%29.98 "HgN/A
2:20 PM63 °FScattered showers. Broken clouds.6 mph83%29.98 "HgN/A
1:50 PM63 °FScattered showers. Broken clouds.7 mph77%29.98 "HgN/A
1:20 PM63 °FBroken clouds.3 mph83%29.98 "HgN/A
12:50 PM63 °FBroken clouds.2 mph83%30.01 "HgN/A
12:20 PM63 °FBroken clouds.3 mph83%30.01 "HgN/A
11:50 AM61 °FDrizzle. Broken clouds.2 mph88%29.98 "HgN/A
11:20 AM61 °FBroken clouds.3 mph88%30.01 "HgN/A
10:50 AM61 °FBroken clouds.3 mph88%30.01 "HgN/A
10:20 AM61 °FBroken clouds.3 mph88%29.98 "HgN/A
9:50 AM59 °FSprinkles. Partly sunny.2 mph88%29.98 "HgN/A
9:20 AM59 °FSprinkles. Broken clouds.3 mph94%29.98 "HgN/A
8:50 AM59 °FSprinkles. Broken clouds.5 mph94%29.98 "HgN/A
8:20 AM59 °FRain showers. Broken clouds.7 mph94%29.98 "Hg6 mi
7:50 AM61 °FLight rain. Partly sunny.6 mph88%29.98 "Hg4 mi
7:20 AM59 °FRain. Partly sunny.3 mph100%29.95 "Hg4 mi
Weather by CustomWeather, © 2015

See weather overviewHow to use our weather pages